Pagina principale
METAR-TAF:

METAR-TAF

Aeroporti :

Bric della Croce

Torino, Italia

latitudine: 45-02N, longitudine: 007-44E, altezza: 709 m

Osservazione

Il bollettino è stato emesso 52 minuti fa, alle 14:55 UTC
Vento calmo
Temperature 23°C
Umidità 69%
Pressione 1020 hPa
Visibilità 10 km o più
Nubi sparse ad un'altezza di 3000 ft

METAR: LIMK 241455Z 00000KT 9999 SCT030 23/17 Q1020 RMK BKN VAL NIL VIS MIN 9999

Ora: 17:47 (15:47 UTC)


TAF: mancante

Osservazioni e previsioni meteorologiche di più di 4000 aeroporti (messaggi METAR e TAF).

Le stazioni disponibili sono rappresentate dai dischi gialli e rossi sulla carta.

Puntare il mouse per vedere il nome della stazione.

Clicca sopra per visualizzare le osservazioni e previsioni meteorologiche.

Per cambiare la mappa : fare clic sui pulsanti verdi con una croce nera per ingrandire, il pulsante verde con un trattino per diminuire, o sulla freccia verde per le mappe adiacenti.


METAR-TAF: